Theta_e
348 344 338 338 336 333 330 330 330 329 326 323 321 328 335 337 338 339 339 340 340 339 338 335 333 332 333 332 329 323 315 314 314 314 314 315 316 315 314 313 312 311 311 311 311 310 310 309 309 310 310 309 309 310 312 314 316 323 329 330 331 332 332 333 332 332 332 331 332 333 334 334 335 337 337 337 337 336 336 337 337 337 336 336 335
348 343 338 337 335 331 329 329 328 326 322 320 320 329 336 336 337 338 339 340 340 339 337 334 333 333 333 332 331 327 318 313 314 314 314 315 317 317 315 314 311 311 311 311 312 310 310 310 310 311 311 311 309 309 310 311 314 319 324 327 330 332 331 332 332 332 331 331 331 333 334 335 336 337 337 337 336 336 336 337 337 337 336 335 336
346 342 338 337 333 330 329 328 326 322 319 318 321 331 336 336 337 338 339 340 340 339 337 334 334 334 333 333 331 330 323 315 313 314 313 315 318 319 317 314 311 311 311 312 313 311 310 311 312 312 312 312 309 308 309 310 311 313 317 323 328 329 330 331 332 331 331 331 331 332 333 335 337 337 337 337 337 336 336 336 337 337 336 335 336
345 340 338 335 331 329 328 326 323 319 318 318 323 333 335 336 337 338 339 339 340 338 336 335 334 334 334 333 332 331 327 320 314 314 314 315 319 322 320 313 310 311 312 314 313 314 312 311 312 313 313 313 312 309 308 308 310 312 314 318 324 327 329 330 331 331 331 330 331 331 333 335 336 336 337 337 337 337 336 336 336 336 336 336 336
344 339 337 334 328 328 327 323 320 318 318 320 325 332 335 336 337 338 339 339 339 337 336 335 335 334 334 333 332 331 328 324 316 314 315 314 319 323 318 312 313 314 314 314 315 316 314 313 314 314 314 314 314 310 308 308 308 310 312 314 319 323 325 328 330 329 328 329 330 330 332 334 334 335 336 336 337 336 336 336 335 335 335 334 333
344 339 336 331 326 326 324 321 320 319 318 320 325 330 334 335 336 337 338 338 338 337 336 335 335 335 334 332 331 329 328 325 318 314 315 315 317 317 316 318 319 316 315 315 316 317 317 317 316 315 316 316 315 311 308 308 308 309 310 312 314 317 321 325 329 327 327 329 328 329 328 330 332 333 334 335 336 336 335 333 333 332 331 331 330
343 339 335 330 326 324 322 322 321 320 318 318 323 328 332 333 335 336 337 337 337 336 336 335 335 334 333 330 329 327 326 324 318 314 314 316 316 318 322 326 326 322 321 320 320 320 318 317 316 316 317 317 315 312 309 308 308 308 309 311 312 313 315 319 325 323 326 330 328 329 328 329 331 332 333 333 334 334 334 332 331 328 325 325 326
342 339 336 331 326 323 323 324 322 320 318 316 318 323 327 331 334 334 335 336 336 336 335 336 334 332 329 326 324 323 323 321 318 314 315 316 317 326 330 330 331 332 332 329 327 323 318 317 316 317 317 317 314 312 311 310 308 308 308 309 310 312 312 315 319 319 326 331 330 329 329 329 330 331 330 330 331 331 331 331 331 325 318 317 319
342 341 337 331 326 324 325 326 323 321 320 317 316 318 322 326 330 333 335 335 336 336 336 334 331 328 326 325 325 326 325 320 317 317 321 321 319 328 333 332 335 335 333 330 327 322 319 318 317 318 318 317 315 313 313 312 310 309 308 308 309 310 312 312 316 322 327 330 330 331 331 330 330 329 327 327 327 327 327 327 327 321 315 314 314
342 341 337 329 326 325 327 327 325 324 323 320 317 316 318 321 325 328 332 334 336 336 334 331 328 328 329 331 333 334 331 320 317 321 328 330 325 329 332 333 334 334 331 329 327 322 321 320 318 318 318 316 315 314 313 312 312 311 309 308 308 309 310 312 320 327 328 326 326 326 327 329 328 326 324 321 320 321 322 321 319 316 314 313 312
342 340 335 328 326 328 329 329 327 326 325 322 319 317 316 318 322 325 329 334 335 333 331 330 330 332 334 336 338 338 331 321 318 320 327 333 331 330 332 334 333 333 333 332 331 326 324 322 320 320 318 317 315 315 314 313 312 312 311 310 308 309 309 314 326 330 327 324 323 323 324 324 323 321 319 317 316 316 316 316 314 312 312 311 310
342 340 336 330 327 329 330 331 330 328 326 323 320 318 316 316 319 323 327 331 333 331 331 332 333 335 335 336 335 334 326 320 321 320 324 331 332 330 331 333 333 333 334 333 330 327 326 324 322 321 319 319 317 316 315 313 313 312 312 311 310 309 308 316 329 331 328 329 329 328 326 324 322 319 318 318 318 316 314 315 315 312 310 309 309
342 339 335 329 326 329 330 330 331 329 328 325 323 321 318 316 316 321 326 330 331 332 333 333 333 334 334 334 333 331 326 323 326 323 322 326 328 330 330 331 332 333 332 330 325 323 325 324 324 323 322 321 320 319 317 315 314 313 312 312 311 311 309 316 327 329 328 329 328 326 323 322 318 315 314 315 315 314 313 313 312 310 309 308 308
341 338 332 328 327 328 329 330 331 330 329 328 327 326 324 321 317 318 325 329 331 332 332 333 333 334 335 336 335 334 330 329 331 329 323 322 325 329 330 329 330 330 330 328 324 323 323 324 325 324 324 324 323 322 320 318 317 316 314 313 311 312 310 315 323 323 323 326 326 323 316 314 311 310 311 310 310 310 310 309 309 308 308 309 309
341 336 331 330 328 327 328 329 330 330 330 330 329 329 328 325 320 320 327 331 331 329 330 331 331 333 334 335 336 333 330 329 332 332 328 322 321 325 328 328 327 328 329 326 322 322 323 323 323 325 326 326 325 324 323 321 319 318 316 314 313 312 314 321 323 320 322 327 327 322 312 309 309 309 309 308 309 308 309 309 308 309 309 309 309
339 334 333 332 328 327 328 328 330 330 330 330 330 330 328 326 322 322 328 332 331 330 331 329 327 332 333 332 333 330 327 328 330 331 331 326 322 321 323 325 326 329 329 326 321 320 322 322 323 325 326 327 325 325 325 323 321 320 318 316 315 313 314 320 322 321 324 327 326 320 310 308 309 309 309 309 309 309 309 309 309 308 309 309 308
339 334 334 334 328 327 328 328 329 330 330 330 330 331 329 326 323 320 324 329 330 330 331 329 328 332 332 331 330 326 325 327 329 328 330 330 329 325 320 322 325 329 329 326 324 320 321 323 323 325 326 327 325 324 325 325 323 321 318 316 315 315 313 315 319 320 322 326 328 323 312 308 308 309 309 309 308 308 308 308 309 308 308 308 308
340 335 334 334 331 328 328 328 328 330 330 331 331 331 331 325 322 319 320 324 324 323 325 328 331 331 329 330 327 324 326 328 327 327 329 331 332 329 323 322 321 326 329 328 327 322 321 322 323 325 326 328 326 324 324 324 324 322 318 316 315 315 314 316 317 315 316 324 325 317 309 307 308 308 308 308 308 308 308 308 308 308 308 308 308
341 338 333 333 334 331 329 328 328 330 330 331 332 332 331 326 321 319 319 320 321 320 321 326 330 328 326 329 327 326 328 329 328 326 328 328 329 328 327 325 318 322 328 329 328 324 322 322 323 325 327 328 327 325 324 323 324 322 319 317 316 315 319 325 325 320 320 324 317 308 308 307 307 307 307 307 307 308 308 308 308 308 308 308 308
340 340 336 334 334 333 332 329 331 333 331 331 332 332 331 327 321 320 321 322 323 323 321 324 326 325 325 326 327 329 330 330 329 327 326 325 327 329 330 328 321 322 327 328 328 326 325 324 325 327 327 329 328 326 325 324 324 323 321 320 319 322 326 329 329 324 321 318 311 308 308 307 307 306 307 307 307 307 307 308 308 308 308 308 308
340 339 338 335 334 334 334 331 332 336 334 332 332 333 332 327 323 323 323 324 326 326 324 322 323 323 324 325 327 330 330 330 330 328 327 326 329 331 330 328 323 322 325 326 327 325 326 326 328 329 329 329 329 328 326 325 325 324 324 323 325 329 330 329 329 328 325 319 309 309 309 307 308 306 307 307 306 306 306 307 307 307 307 307 307
340 340 339 337 335 334 335 332 332 336 337 335 334 333 333 328 324 326 327 327 329 330 328 326 325 326 326 327 328 330 329 330 331 328 329 329 330 330 328 325 322 321 322 323 325 325 326 326 328 330 331 331 330 328 328 326 325 326 326 326 329 331 330 330 330 330 330 325 312 307 309 307 308 308 308 307 306 307 306 306 306 306 306 306 307
340 340 339 339 338 336 336 333 331 336 337 337 335 333 334 331 325 327 329 329 332 333 332 331 330 330 330 330 330 331 331 331 332 330 330 331 329 328 327 324 323 322 320 318 323 327 328 327 328 329 331 331 330 330 329 327 327 326 326 329 331 331 330 330 330 329 330 328 318 311 312 313 313 311 309 310 308 307 306 306 306 305 305 305 306
341 340 340 339 338 338 337 334 332 335 338 337 335 334 334 333 329 329 330 330 333 334 334 335 335 334 333 333 331 331 332 332 332 331 331 331 328 327 326 326 324 321 318 317 320 326 329 329 329 329 331 331 331 332 333 330 328 327 328 330 331 330 331 330 329 330 329 330 326 322 323 325 323 319 316 316 312 308 307 306 306 305 306 305 305
341 341 341 339 339 339 337 336 335 335 338 337 336 335 334 333 332 332 333 333 333 333 334 335 336 336 334 333 332 332 332 332 332 331 332 331 329 328 326 325 323 320 319 318 317 321 327 329 330 330 331 331 331 333 335 333 331 329 330 330 329 329 331 330 330 330 329 329 328 327 330 330 329 327 324 322 315 311 309 307 307 306 305 305 305
341 341 341 339 339 340 339 338 337 336 339 338 337 335 334 334 334 335 336 335 334 333 334 333 334 336 334 333 333 333 333 333 332 334 333 330 329 330 328 325 321 320 320 320 318 318 323 327 330 331 331 331 331 333 335 335 332 331 330 329 329 330 331 330 330 330 329 326 325 328 331 331 331 330 328 325 319 313 310 308 307 306 306 305 305
341 341 341 339 339 339 339 339 338 338 339 339 337 335 334 335 335 335 337 337 336 335 334 333 335 335 333 333 333 333 333 334 334 335 333 329 329 329 328 324 320 320 320 320 319 318 323 328 329 327 328 330 332 334 335 334 332 331 331 329 329 330 331 331 330 330 328 324 322 326 330 331 332 331 329 326 320 314 310 309 307 306 306 305 305
341 341 341 340 339 338 338 340 340 339 339 338 337 335 333 335 334 333 336 337 336 335 334 334 335 334 332 332 333 333 333 335 335 332 329 327 328 326 324 322 319 319 319 320 322 323 327 329 325 322 325 330 332 334 335 333 332 331 331 330 330 331 331 330 329 329 330 328 326 325 329 331 330 331 329 323 320 316 311 308 307 307 306 306 306
342 341 341 341 340 337 338 340 339 338 338 337 338 336 333 334 333 333 336 335 333 333 334 334 334 334 334 334 334 334 334 334 334 330 327 326 326 323 321 320 319 319 319 322 325 324 325 327 325 325 328 331 333 333 334 333 332 332 331 331 331 331 330 329 328 330 331 332 329 324 326 329 328 330 326 321 319 316 311 308 308 307 306 307 307
341 341 341 341 341 337 337 337 336 336 337 337 337 336 333 333 333 332 333 332 331 332 333 332 331 331 333 333 333 332 333 333 331 328 326 325 323 321 321 320 320 320 320 321 323 322 323 326 328 329 329 330 332 333 333 333 332 332 332 332 332 331 331 330 329 331 331 331 329 325 324 326 327 326 321 319 318 313 310 309 309 309 309 311 312
341 341 340 341 341 339 337 335 334 334 335 336 336 336 334 334 334 331 330 331 332 332 332 330 328 329 330 331 330 330 330 330 329 328 327 324 323 321 322 323 324 325 324 322 322 323 325 329 330 330 330 330 332 333 333 332 332 331 332 332 331 330 330 330 329 330 331 331 331 329 325 324 323 320 318 321 320 315 314 313 313 314 315 317 318
340 341 340 340 341 340 337 335 335 334 333 334 335 336 335 334 334 331 331 332 332 332 331 328 327 328 329 329 330 329 329 328 328 329 327 325 326 326 325 327 328 329 328 325 324 323 325 328 329 329 329 331 332 332 332 331 331 331 331 332 331 330 330 330 330 330 331 331 331 330 328 324 319 318 321 323 323 322 321 321 322 322 321 322 324
340 340 340 339 340 340 338 336 335 334 332 334 336 336 335 335 334 331 330 331 331 332 331 328 327 328 329 329 329 328 327 327 328 328 328 327 328 328 328 328 329 329 329 327 326 324 325 326 325 325 328 331 332 332 332 331 331 331 332 332 330 329 330 330 331 331 331 331 331 330 329 325 321 322 323 323 324 325 326 326 327 326 325 326 327
340 340 340 340 340 339 338 337 336 334 333 335 336 335 335 334 333 331 330 330 331 331 329 328 328 328 329 329 329 327 325 326 327 328 329 329 328 328 328 329 328 328 328 328 329 327 327 328 327 328 329 331 332 331 331 331 332 332 331 330 329 328 330 330 331 331 331 331 330 330 329 328 326 326 325 326 326 326 326 327 326 326 326 326 326
340 340 340 339 339 339 337 337 337 334 332 335 336 335 335 334 333 331 330 329 329 331 329 328 328 328 329 329 328 327 325 326 327 328 328 329 328 328 329 328 327 327 327 329 330 330 330 330 331 331 332 332 332 331 331 332 332 331 330 329 329 329 329 329 329 330 330 330 330 330 329 329 328 327 326 327 327 327 327 326 326 326 326 325 325
340 339 340 339 338 338 337 336 337 334 332 334 336 335 334 334 333 331 330 328 328 330 329 328 328 328 329 329 328 327 325 325 327 326 326 328 329 329 328 326 326 327 328 329 330 331 331 331 332 332 332 332 331 331 332 332 330 328 329 328 328 329 329 329 330 330 330 330 330 329 329 329 328 327 327 327 326 326 326 326 325 325 324 324 323
340 340 340 339 338 338 337 336 336 334 333 334 334 334 335 334 332 330 329 329 328 329 329 328 328 329 330 329 328 327 325 326 327 324 324 328 330 328 326 325 326 328 328 328 330 332 331 330 331 332 332 332 332 332 332 330 328 328 329 329 328 329 329 329 330 330 329 330 329 329 330 329 328 328 328 327 327 326 326 325 324 323 324 323 322
341 341 340 338 338 339 339 338 335 333 334 335 333 333 334 333 331 330 329 329 328 328 328 328 329 330 330 329 328 326 325 326 326 324 326 329 329 326 325 324 325 327 328 328 330 333 332 330 330 331 332 332 332 332 331 329 328 329 330 328 328 329 329 330 330 329 330 330 329 329 329 328 328 328 329 329 328 328 327 325 324 324 324 323 323
340 340 340 338 338 338 338 338 336 333 334 335 334 333 334 332 330 329 329 329 328 329 330 330 329 330 330 328 328 327 325 325 325 325 328 330 328 325 325 325 325 326 327 329 331 331 330 329 329 329 330 331 332 330 329 329 328 329 330 329 328 329 329 329 330 330 330 330 329 329 328 328 328 328 328 328 328 329 328 326 326 326 323 323 323
340 340 339 338 338 338 337 336 335 335 335 335 334 334 334 331 330 330 329 329 329 330 332 332 330 330 330 329 329 328 327 325 323 325 328 329 328 327 326 325 325 326 328 329 331 329 327 328 329 329 329 330 330 328 327 329 330 330 330 329 328 329 329 329 329 330 329 329 328 328 328 328 328 327 326 326 327 327 327 326 326 325 323 322 321
340 339 339 338 338 337 337 336 335 334 335 334 334 334 333 331 330 330 329 330 330 331 332 332 331 331 331 329 327 328 327 325 325 327 328 328 328 327 326 326 325 327 328 329 331 330 327 328 328 328 328 329 329 329 329 329 329 329 329 329 328 327 327 328 329 329 328 329 329 328 326 326 328 327 326 326 326 325 325 325 325 324 322 321 320
340 339 339 338 337 337 336 337 335 334 334 334 333 333 332 331 331 330 329 331 331 332 331 330 332 331 327 327 326 327 329 327 327 328 327 326 326 327 326 326 326 326 328 328 329 329 327 327 328 328 329 329 329 330 329 329 329 329 328 328 328 327 327 327 329 329 329 328 327 325 323 324 326 326 325 325 325 325 324 323 323 321 319 319 321
339 339 339 338 337 336 335 336 336 335 334 333 333 333 332 331 332 331 331 332 332 332 331 331 332 330 326 326 326 328 330 329 328 327 326 326 326 327 327 327 327 326 327 328 327 327 327 327 328 329 330 330 331 330 328 328 329 329 329 328 327 327 327 328 328 327 327 326 325 324 323 324 325 324 325 326 324 323 322 321 320 319 318 319 321
339 338 338 338 337 336 335 336 335 335 335 334 333 333 332 331 332 331 331 333 332 332 332 331 332 331 328 326 326 328 330 329 328 328 329 328 327 327 328 328 327 326 327 328 327 327 327 328 329 330 330 330 331 330 328 328 328 328 328 327 327 327 327 327 326 325 325 325 325 325 324 324 324 323 324 324 322 321 320 319 319 318 318 319 320
338 338 338 337 336 335 335 335 334 334 334 334 333 333 332 331 331 331 331 332 330 330 331 328 329 332 331 328 328 329 329 328 328 330 331 330 328 329 329 329 329 327 327 329 329 327 328 329 330 330 330 330 331 331 330 329 328 327 326 326 327 327 327 327 326 326 325 325 325 325 325 325 324 324 323 321 320 319 319 319 319 318 318 317 317
338 338 337 337 336 336 334 334 334 333 332 334 333 333 332 331 331 332 331 330 328 328 329 328 328 332 332 329 329 329 328 328 328 330 330 328 328 329 330 331 331 328 327 329 330 329 329 331 331 330 330 331 331 331 330 329 328 327 326 327 327 325 326 326 326 327 326 325 325 325 325 324 324 323 321 318 318 319 319 319 318 316 315 313 312
337 337 337 337 336 336 334 335 335 332 332 333 333 332 332 332 331 331 330 330 330 329 329 329 330 331 330 328 328 328 328 328 328 328 327 327 328 328 329 331 331 329 328 328 330 330 330 331 331 331 331 331 330 329 328 329 328 327 327 327 327 325 325 326 327 327 326 325 325 325 325 324 323 321 318 316 317 319 318 316 314 311 310 309 308
337 336 336 337 336 335 334 334 333 332 333 334 333 333 333 331 330 330 331 331 331 328 328 329 329 329 328 328 328 327 328 327 327 327 326 327 328 327 328 330 330 330 328 327 329 330 331 331 331 331 331 331 330 327 327 328 328 327 327 326 327 328 327 327 327 326 326 325 324 324 323 321 320 318 316 315 316 317 315 313 312 310 308 307 307
337 336 335 336 336 335 334 333 332 332 333 334 333 333 332 330 329 330 331 331 331 328 327 328 327 328 328 328 328 327 327 327 327 327 327 328 327 327 328 329 329 329 328 328 329 329 331 331 330 330 331 331 328 326 326 328 328 327 327 326 328 328 327 328 327 325 326 325 325 324 321 319 318 316 315 316 315 314 314 313 312 309 306 306 307
336 336 335 335 336 334 333 333 333 332 333 333 333 333 331 329 329 329 328 330 330 327 326 327 327 328 328 328 327 326 326 327 327 327 327 328 328 327 327 327 328 327 327 329 328 327 328 328 328 328 328 328 327 326 326 327 328 328 327 326 328 328 327 328 327 326 326 326 325 323 322 321 319 315 312 314 315 314 315 314 312 309 307 308 307
336 335 335 335 335 332 331 333 333 332 332 332 332 332 329 328 328 327 327 329 329 326 325 326 327 327 328 327 325 324 325 324 325 324 325 326 328 328 327 326 326 326 327 329 327 325 325 325 327 328 327 326 326 327 327 327 329 329 327 326 327 328 326 327 327 327 326 326 325 323 322 321 319 315 310 310 313 313 313 314 311 308 308 308 308
Wind_Speed
16 20 24 22 20 19 16 15 12 11 11 13 15 17 19 20 21 21 21 21 20 19 18 19 19 17 16 16 16 15 15 17 18 18 18 17 17 17 17 17 17 18 19 19 19 20 21 21 21 22 22 23 23 23 22 22 21 21 20 18 19 19 17 18 18 19 19 19 19 18 17 16 17 18 19 19 20 20 19 18 19 18 18 18 17
20 22 24 23 20 19 16 14 11 11 11 14 16 19 20 20 21 21 21 21 21 20 19 19 19 17 15 16 16 15 14 16 17 18 17 16 15 17 17 17 18 19 18 18 19 20 21 21 21 22 24 24 24 24 23 23 23 21 19 19 20 19 18 18 19 19 19 19 18 18 16 16 18 20 21 20 20 20 20 19 18 18 18 18 17
21 22 23 23 20 18 15 13 11 11 13 15 18 21 21 21 21 21 22 21 21 20 19 19 18 16 15 15 16 14 13 14 16 16 16 14 14 16 17 17 19 19 17 18 19 20 22 22 21 22 25 25 24 24 24 23 23 22 21 20 20 19 19 18 19 19 19 19 17 16 16 15 16 19 20 21 20 20 20 19 18 18 17 17 17
22 24 24 22 19 17 14 12 12 12 14 16 19 21 22 21 21 21 21 21 21 20 20 19 17 16 15 15 15 14 13 13 14 15 14 14 14 16 17 17 19 18 17 18 18 19 21 21 20 21 25 26 25 24 24 23 23 23 22 21 19 19 18 18 19 20 20 20 18 15 14 13 14 16 18 19 19 19 19 17 17 16 16 16 16
23 26 24 22 19 16 13 13 13 13 14 17 20 22 22 22 22 22 21 21 21 21 20 18 16 15 15 15 14 14 12 12 13 14 14 15 15 15 17 17 17 18 17 17 16 17 18 18 18 19 24 26 25 25 24 24 23 23 23 21 19 17 17 17 18 20 21 22 20 15 12 11 12 14 14 16 16 16 16 15 15 14 13 13 13
22 25 24 22 20 16 14 13 13 13 14 16 19 21 21 22 21 21 22 22 21 21 20 18 16 15 14 14 14 13 12 11 12 14 14 15 16 16 17 17 17 17 17 17 15 16 16 17 17 18 21 24 25 25 25 24 23 24 23 22 20 18 16 17 18 21 24 23 19 14 12 11 10 11 11 12 12 13 13 13 13 11 11 11 10
21 24 24 22 20 17 15 14 13 13 14 15 18 20 21 21 21 21 21 21 21 21 20 18 16 15 14 14 14 13 12 11 12 14 14 15 16 16 16 17 16 15 16 16 15 16 17 17 17 19 21 23 24 25 26 25 24 24 24 23 22 20 17 17 17 19 22 19 15 14 13 11 9 8 8 9 9 10 10 10 9 8 8 8 7
21 22 23 22 20 18 16 14 13 13 13 15 17 18 20 21 21 21 20 21 22 22 20 18 16 15 14 14 14 14 12 11 12 14 14 14 16 16 15 17 15 15 16 15 15 16 17 18 18 19 22 23 24 25 26 26 25 24 24 24 23 21 19 17 16 16 18 16 14 13 12 11 9 7 6 7 8 8 8 7 4 4 6 6 6
21 19 21 23 20 18 16 14 14 13 13 14 16 17 18 20 20 20 20 21 21 21 19 18 17 16 15 15 14 13 12 11 13 15 14 14 15 16 16 16 16 15 15 14 14 15 17 18 19 20 21 22 23 24 25 26 25 24 24 25 24 23 21 19 17 16 15 14 14 13 12 12 10 7 7 7 7 8 9 8 4 4 5 6 6
20 18 20 23 21 19 17 15 14 14 14 14 14 16 17 18 19 20 20 20 21 20 19 18 18 16 15 14 13 13 12 11 13 15 15 14 14 15 16 16 16 15 15 14 14 15 17 18 20 20 21 21 22 23 24 25 25 24 24 24 24 24 22 22 20 15 13 13 14 14 15 13 10 8 8 7 7 8 8 7 6 6 6 6 6
20 18 20 23 23 20 18 16 15 14 14 14 14 14 15 17 19 20 20 20 20 20 19 18 17 16 15 14 14 13 12 12 14 16 17 17 15 15 17 16 15 15 14 14 14 14 17 19 20 21 21 21 21 22 23 24 24 24 24 23 24 23 23 25 19 13 14 14 14 14 14 12 10 10 9 9 8 8 7 7 7 7 7 7 9
19 18 19 23 23 20 18 17 15 14 13 13 14 14 15 16 18 19 19 20 20 19 18 17 16 16 15 14 14 13 11 11 13 16 18 20 18 17 18 17 15 15 15 14 15 15 16 19 20 20 20 21 21 21 21 22 23 23 23 23 23 22 24 25 16 13 15 15 15 14 12 11 11 11 10 10 10 8 8 8 9 8 9 10 11
20 19 20 24 23 20 19 17 15 14 13 13 13 13 14 15 17 18 19 20 20 18 17 17 16 16 16 15 14 13 10 10 11 12 17 20 19 19 18 18 17 16 15 14 16 16 17 19 19 19 20 20 20 20 20 21 22 22 22 21 23 21 24 24 16 13 15 14 14 13 12 13 12 12 11 11 11 10 10 10 11 10 11 11 12
20 20 23 25 23 21 19 17 15 13 12 12 11 11 12 13 14 17 19 19 19 18 17 16 16 16 15 15 14 13 11 11 11 9 12 17 19 20 19 19 18 16 15 15 16 18 18 18 18 18 18 18 18 18 19 20 21 21 20 20 21 21 23 22 15 14 16 16 14 12 13 14 14 14 13 13 12 12 12 12 12 12 12 12 12
20 22 24 24 24 21 18 16 15 13 12 11 10 10 10 11 13 15 18 18 18 17 16 16 16 16 15 14 13 13 13 13 13 9 9 13 16 18 18 17 16 15 15 15 17 18 18 18 17 17 17 17 17 17 17 18 19 19 19 19 18 20 22 17 13 15 15 15 13 11 13 14 15 15 14 14 13 13 12 12 12 12 12 12 13
21 25 23 22 24 21 19 16 15 13 12 11 10 10 9 10 12 14 16 16 16 16 16 16 17 16 15 14 13 13 14 14 14 13 11 11 12 14 15 15 14 14 14 15 16 19 18 17 17 17 17 16 15 15 16 16 17 18 18 18 17 17 21 17 13 15 14 14 12 10 12 14 15 14 14 13 13 12 12 12 11 11 12 12 13
21 25 23 22 24 22 21 18 16 14 12 12 10 9 8 10 12 14 15 15 15 15 14 16 18 17 16 15 15 14 15 15 15 15 13 12 11 11 13 14 14 13 14 14 15 18 18 17 16 16 15 16 14 13 14 15 16 17 17 17 16 15 18 18 15 14 14 14 11 9 11 13 13 13 13 13 13 12 12 12 11 11 11 12 12
20 24 24 23 24 23 21 20 17 15 14 13 11 10 8 9 12 13 14 15 15 15 15 18 19 17 17 17 16 16 17 17 15 15 15 14 12 10 10 12 14 14 13 14 14 16 17 16 15 14 13 14 13 12 13 14 15 16 17 17 16 15 17 17 14 13 15 14 10 9 11 12 12 12 12 12 12 11 11 11 11 11 11 11 11
19 22 24 23 23 22 21 21 19 16 15 14 13 12 9 10 11 12 14 15 16 16 18 19 19 18 18 17 17 17 17 17 16 16 15 14 12 10 9 10 13 15 14 15 15 14 14 14 13 13 12 12 12 11 11 13 14 15 16 16 16 16 16 15 12 11 13 12 9 10 11 11 12 12 11 11 10 9 9 10 10 10 10 10 10
19 20 23 23 22 21 21 21 19 17 16 15 14 13 11 10 11 12 13 15 16 17 19 20 19 19 18 18 18 17 16 17 16 15 14 14 13 11 10 9 11 14 14 15 15 12 12 12 11 11 11 11 11 10 10 11 12 14 15 14 14 13 12 12 11 11 11 10 9 10 11 11 11 11 10 9 9 8 8 9 9 9 9 9 10
19 20 21 23 23 22 21 21 20 18 16 16 15 14 12 11 11 13 14 15 17 17 18 19 19 19 19 20 19 18 18 17 17 15 14 14 14 13 10 9 11 13 13 14 14 12 11 10 10 9 9 10 10 10 9 9 10 13 13 12 12 10 9 11 11 11 10 8 9 9 10 10 10 9 9 8 8 8 8 8 8 8 8 8 8
18 19 20 22 24 23 21 22 22 18 17 16 16 16 14 13 13 14 14 16 17 17 18 18 19 20 20 21 21 21 21 19 19 18 16 15 13 12 11 9 10 11 12 13 13 13 11 10 9 8 8 9 9 9 9 8 9 11 12 11 10 7 7 10 10 10 9 6 8 9 9 9 9 8 7 7 7 7 7 7 7 7 7 7 7
18 18 19 21 22 23 22 22 23 20 17 17 16 16 14 14 13 14 15 17 18 18 19 19 19 20 20 21 21 22 21 18 18 19 17 15 13 12 11 9 8 9 11 12 13 13 12 10 9 7 7 8 7 6 7 7 7 9 9 9 8 7 7 10 9 8 7 6 8 9 9 8 8 7 7 6 5 6 6 6 6 6 6 6 6
18 18 18 20 21 22 22 23 23 20 18 17 16 16 15 14 14 15 17 18 19 19 18 18 18 19 20 20 21 20 20 18 17 17 16 14 13 12 10 9 7 7 8 10 11 13 12 11 10 8 7 7 6 6 7 6 6 6 7 7 7 8 9 9 9 7 7 7 8 9 10 9 7 6 6 6 4 4 4 5 5 5 6 6 6
18 18 18 19 20 19 20 22 21 20 18 17 17 17 17 16 16 17 17 18 19 18 18 18 19 19 20 20 20 19 18 19 18 16 15 14 12 11 9 7 6 5 6 7 9 11 12 12 10 9 9 7 6 7 8 7 7 6 7 8 7 9 10 9 9 7 7 6 7 11 11 9 7 5 5 6 5 3 3 4 4 5 5 6 6
18 18 18 18 19 18 18 20 20 20 18 17 18 18 18 17 17 18 16 16 16 16 17 19 20 19 20 20 20 19 17 17 16 15 14 14 12 10 8 8 7 7 7 7 7 10 12 11 10 10 10 8 7 8 9 8 8 8 8 8 7 9 9 9 7 7 7 5 8 12 11 8 6 4 4 6 6 5 3 3 4 4 5 6 6
18 18 18 17 18 19 19 18 20 21 18 18 18 19 19 18 18 18 17 14 14 14 16 18 19 18 19 20 19 18 16 14 14 14 13 13 12 10 9 10 9 8 8 7 7 9 10 10 11 11 10 9 8 8 8 8 9 9 8 7 8 9 8 8 7 7 7 6 8 10 11 9 6 3 3 5 7 6 5 4 4 5 5 5 6
17 17 17 16 18 21 20 18 19 21 21 20 19 20 22 20 19 18 16 16 15 14 15 16 18 17 17 19 18 15 14 14 12 12 12 12 11 11 11 11 10 9 9 8 7 9 10 10 11 11 9 9 8 9 8 8 9 9 8 8 8 9 8 8 8 8 7 6 7 7 9 9 5 3 3 5 7 7 7 6 6 5 5 6 6
17 16 16 16 19 22 20 19 19 21 22 21 20 21 23 21 20 18 16 17 17 15 15 15 15 15 15 17 17 14 14 13 11 10 10 11 11 12 12 11 10 9 9 8 8 9 9 10 9 9 9 9 9 9 9 9 9 9 8 8 8 8 9 9 9 8 7 7 6 4 5 7 5 3 3 6 8 9 8 8 7 7 7 8 9
17 16 17 16 18 21 20 19 20 21 22 22 22 23 24 22 21 20 18 18 17 16 16 14 14 13 13 15 17 15 13 12 11 10 9 10 11 12 12 11 10 9 9 9 8 8 8 8 8 9 10 9 9 9 9 10 9 8 8 8 8 9 9 9 9 8 8 7 6 4 3 3 3 1 3 8 12 11 11 11 11 12 12 12 12
17 17 18 18 17 18 20 20 21 21 21 23 24 24 23 22 21 20 19 18 18 17 15 13 13 12 12 13 15 14 12 12 11 10 9 10 10 11 11 10 10 9 8 8 8 7 7 8 9 9 10 9 9 9 10 10 9 8 8 8 8 9 9 9 9 9 8 8 7 6 4 2 1 2 6 11 12 13 14 14 14 14 13 13 12
16 17 17 18 17 18 21 21 20 20 20 22 24 24 22 21 21 19 18 17 17 15 14 13 13 13 12 11 13 12 11 11 10 9 9 9 10 9 10 9 9 9 7 7 7 7 8 9 10 11 11 10 10 10 10 10 9 8 8 8 9 9 9 9 8 8 8 8 7 7 5 3 3 7 11 11 10 11 11 11 10 10 9 9 8
14 16 15 17 18 18 20 19 20 21 20 22 24 22 20 21 21 19 17 16 15 13 12 14 15 14 14 13 12 11 9 9 9 9 8 8 9 8 9 8 8 8 8 7 7 7 8 8 8 10 11 11 10 11 10 10 10 9 8 8 9 9 9 9 8 7 7 7 7 7 6 6 6 8 10 10 10 8 7 7 6 6 6 6 5
12 14 14 16 18 18 19 19 20 21 21 21 21 19 18 19 19 17 16 15 14 12 12 15 18 16 16 15 13 12 11 9 9 9 9 8 8 7 7 7 8 8 7 7 7 7 8 8 8 8 9 10 10 11 11 10 10 9 9 9 8 9 9 9 8 8 7 7 7 8 8 8 8 6 6 7 8 7 6 6 5 5 5 4 4
14 14 14 15 17 18 19 19 19 19 20 20 19 18 18 18 17 16 16 15 15 13 13 18 19 18 16 16 15 14 13 12 10 10 9 9 8 7 7 7 7 7 7 7 7 8 8 8 8 8 9 9 10 11 11 11 11 11 10 9 9 10 10 10 9 8 7 7 7 7 8 7 7 6 5 5 6 6 5 5 4 4 4 4 5
15 15 14 14 15 18 21 19 19 19 20 20 19 18 18 19 18 16 16 15 15 13 13 18 20 18 17 17 17 15 15 14 12 10 10 10 9 8 8 7 6 8 8 7 7 7 8 9 9 9 9 9 11 11 11 12 13 12 11 10 11 11 11 10 9 8 8 8 6 6 6 5 6 6 5 4 5 5 5 4 5 5 5 5 5
15 15 15 15 14 17 20 19 19 20 21 21 19 19 19 19 18 16 15 15 15 14 14 19 22 19 17 18 17 17 15 14 12 12 12 12 11 10 9 7 7 9 8 8 8 7 9 10 10 10 9 9 11 12 12 13 13 12 11 12 12 12 11 11 10 9 9 8 6 6 5 5 6 6 4 4 4 4 5 6 5 5 5 4 4
16 15 15 15 13 14 16 18 19 17 19 20 18 19 20 18 17 15 15 14 14 14 14 19 21 17 17 18 17 16 14 13 13 13 14 14 13 11 10 9 8 9 9 8 8 8 9 10 11 11 10 10 11 12 13 13 12 12 12 13 13 12 11 11 10 9 8 7 7 6 5 5 6 5 4 4 4 3 4 5 5 3 3 4 4
17 15 14 13 13 15 14 16 17 15 18 18 16 19 20 18 16 15 15 15 15 14 13 15 18 17 16 17 17 15 13 13 13 13 13 14 13 11 11 10 9 9 9 9 8 9 10 10 11 12 11 11 11 13 13 12 12 11 12 13 12 12 11 11 10 9 8 7 7 6 5 5 5 5 4 4 4 3 2 3 4 3 4 4 4
16 14 14 13 14 16 15 16 17 16 17 17 16 18 18 17 16 16 16 15 15 15 12 12 14 14 12 12 13 12 12 12 12 12 11 12 12 11 12 11 9 9 9 8 9 10 11 11 11 12 13 12 11 13 13 13 13 12 13 13 12 12 12 11 10 9 9 8 7 6 5 5 4 4 3 2 3 3 3 2 3 2 3 4 5
13 14 15 15 15 15 14 15 17 18 17 15 17 19 17 16 16 16 16 14 15 14 12 12 12 11 10 10 10 11 12 13 12 12 10 10 11 10 11 11 10 9 9 9 9 10 12 12 12 12 13 13 12 14 15 15 15 15 14 13 12 12 12 12 9 8 8 8 8 7 6 6 5 4 4 3 3 3 3 3 3 3 4 5 5
13 14 15 15 15 14 13 13 14 16 15 13 17 20 18 16 15 16 15 13 14 13 13 14 12 11 12 11 10 10 11 12 10 10 10 10 11 10 11 11 10 10 10 11 10 11 12 12 12 13 13 13 13 15 16 16 16 16 15 15 14 13 12 11 9 8 8 8 7 6 5 6 6 6 6 5 5 4 4 5 5 5 6 7 6
14 14 15 14 15 14 12 12 13 14 13 14 17 18 17 15 14 15 14 12 12 12 12 13 12 12 13 10 9 9 9 10 10 10 10 10 11 11 11 11 11 11 10 11 11 12 12 12 12 12 13 13 13 15 16 16 17 17 16 14 14 15 13 10 9 9 8 8 7 6 5 6 7 6 5 5 5 5 5 7 7 7 7 8 8
14 15 15 14 15 15 14 13 13 14 14 15 17 17 16 15 14 15 14 12 12 13 12 12 12 11 11 11 10 10 10 10 11 10 9 10 11 12 12 12 12 12 11 11 11 12 12 12 12 12 14 15 15 16 17 17 17 17 16 14 13 14 11 10 11 9 8 8 7 7 7 7 7 6 5 5 6 7 7 8 8 8 8 9 9
15 15 15 14 14 14 15 14 14 15 16 15 16 18 17 17 16 15 15 14 14 16 15 14 13 10 10 11 10 10 11 11 11 9 8 10 11 12 12 12 12 12 12 11 10 12 12 11 12 13 14 14 14 15 16 17 17 16 16 14 12 11 10 13 13 10 8 8 8 8 8 8 7 7 7 6 6 7 8 9 9 9 8 9 9
15 15 15 13 12 13 14 15 14 16 17 15 16 19 18 18 17 15 17 17 16 17 16 15 14 11 10 10 10 10 10 10 9 9 9 10 11 11 11 11 11 12 13 11 11 11 11 11 11 12 12 13 15 15 16 17 19 17 16 15 11 10 14 17 15 11 9 9 9 8 8 8 8 8 7 7 7 9 10 10 10 9 8 8 8
16 16 15 13 13 14 14 16 16 17 17 15 15 19 18 17 17 16 16 16 15 15 15 13 13 11 10 10 9 9 9 8 8 8 8 9 10 10 11 11 11 12 13 13 12 11 11 11 11 11 12 12 13 15 16 17 20 19 17 16 11 10 16 17 14 15 13 11 10 8 8 9 8 9 8 7 9 11 12 11 10 9 8 8 8
16 16 16 14 14 14 13 16 19 18 17 15 17 19 17 17 19 17 16 15 14 14 13 13 13 12 10 9 8 7 7 7 7 7 8 8 9 9 10 11 11 12 13 13 12 12 11 11 13 13 12 11 11 14 16 17 20 19 17 15 9 9 15 13 10 13 14 14 12 9 8 8 8 10 10 9 10 11 12 11 9 8 9 9 8
16 17 17 15 15 14 13 15 18 19 17 16 18 19 18 18 19 18 16 14 13 13 12 12 11 11 9 9 8 7 7 7 7 7 7 7 8 9 10 11 12 12 12 12 12 13 13 12 15 15 13 13 12 12 15 17 18 17 17 15 8 9 13 10 8 10 11 13 13 11 11 10 9 9 10 10 11 11 11 10 9 8 8 9 8
16 16 16 15 15 16 15 15 16 18 19 19 20 20 20 20 20 19 17 14 13 12 11 10 10 10 10 9 8 7 7 7 7 7 7 6 7 8 10 11 12 12 11 11 13 15 15 14 15 16 15 14 14 12 14 16 16 15 16 13 9 10 13 11 9 9 9 10 12 14 13 11 9 8 9 9 9 10 9 9 9 8 8 9 8
14 15 14 14 14 16 17 16 16 19 21 22 22 21 20 20 21 20 17 15 14 13 12 12 11 11 11 11 10 8 7 7 7 6 7 7 7 8 9 10 11 12 11 12 13 14 15 15 15 16 16 16 15 14 15 17 15 12 12 11 10 12 14 14 12 10 10 10 11 14 13 11 10 8 9 9 9 8 8 7 7 8 9 9 8
Wind_Direction
161 169 171 169 166 164 165 166 169 170 168 165 164 164 163 161 163 164 165 166 167 166 163 159 155 151 141 133 129 127 131 134 135 135 137 139 141 139 136 131 123 117 114 114 113 109 107 107 102 98 95 92 91 91 93 96 101 103 108 115 111 107 105 104 105 105 106 106 106 104 100 97 94 95 97 99 102 103 102 99 96 97 99 99 98
157 166 167 167 164 162 164 164 167 167 166 163 164 164 162 161 162 163 166 168 168 167 164 162 158 153 145 138 133 130 130 133 136 136 137 139 140 137 134 128 121 118 116 115 114 111 109 108 104 100 96 92 89 90 91 92 97 101 106 113 114 113 112 109 107 108 108 107 108 107 103 98 92 93 96 98 100 100 100 97 95 95 98 99 97
154 160 162 165 161 160 162 162 165 163 162 161 163 163 161 161 162 164 166 169 170 168 166 164 161 155 149 144 138 134 132 134 136 136 136 138 136 130 128 124 120 119 118 116 113 114 113 109 105 101 96 92 90 89 89 90 93 96 101 108 114 116 117 114 111 110 110 106 104 106 105 98 89 88 94 97 95 95 95 95 94 92 94 95 94
153 158 161 161 157 158 159 160 163 160 159 158 162 162 161 161 163 165 167 170 170 169 167 166 165 160 154 147 141 138 137 136 136 137 136 138 136 130 127 124 122 123 122 117 115 117 117 112 107 102 97 93 91 89 88 89 90 92 97 106 113 117 118 118 115 111 111 102 92 92 96 97 93 91 97 99 95 94 95 94 93 91 93 93 93
151 159 160 155 154 157 158 159 159 157 157 157 162 163 163 163 164 167 169 171 171 171 169 169 168 165 158 150 144 141 143 140 140 142 139 138 137 133 130 128 127 126 122 117 117 116 118 118 112 106 100 95 92 90 88 87 89 90 94 101 109 115 116 118 118 113 103 90 83 84 88 93 96 96 101 100 96 99 99 99 98 96 98 96 95
149 157 157 152 153 155 157 158 155 154 154 156 161 164 166 166 167 168 171 172 172 172 172 173 172 169 162 152 148 147 148 146 145 145 140 139 138 136 135 133 131 126 122 120 119 116 117 117 113 112 103 97 94 91 89 87 87 88 91 96 103 110 114 118 122 115 98 85 85 92 93 89 88 92 102 103 104 108 104 106 105 100 103 100 97
148 154 154 153 153 154 155 154 152 152 152 155 161 165 169 169 170 171 172 173 174 175 175 175 173 170 163 154 153 151 152 152 150 146 141 142 141 140 140 137 132 127 127 124 122 117 116 118 114 110 103 98 96 94 91 89 87 88 89 92 96 104 112 116 125 122 101 92 97 101 99 97 96 98 111 116 117 116 105 105 104 90 92 94 93
149 151 153 156 153 152 152 152 152 152 152 154 161 166 169 170 171 172 175 176 177 179 178 174 171 168 162 157 156 154 155 158 155 150 147 146 145 143 141 137 133 132 131 127 122 115 114 120 115 107 102 100 98 96 94 91 90 89 90 91 92 98 104 112 122 114 97 97 101 99 98 99 103 101 112 116 109 106 90 83 80 63 69 75 80
149 149 154 158 153 150 150 152 153 154 155 153 158 164 168 172 172 173 176 178 180 180 176 170 169 167 163 161 159 158 159 166 162 154 150 146 145 145 140 138 140 140 138 133 125 118 116 118 113 107 104 102 100 98 95 93 91 90 90 91 91 92 98 110 111 95 90 101 103 102 101 98 98 94 99 111 110 106 91 78 75 83 82 72 73
149 150 155 158 153 150 151 154 157 157 155 153 154 157 163 170 174 175 175 178 180 176 172 169 169 168 167 166 164 162 163 173 168 156 152 146 145 145 141 142 146 144 142 138 130 125 122 118 113 109 106 104 102 99 97 95 93 91 90 90 92 92 97 99 93 87 93 101 106 114 117 115 112 103 100 109 115 112 107 102 96 96 98 90 85
150 152 156 158 154 150 155 157 160 158 155 154 150 151 158 166 174 176 174 175 176 172 171 171 169 169 168 169 164 161 167 174 170 163 156 152 151 148 145 150 151 145 144 139 133 131 126 122 117 112 109 105 102 100 98 97 95 94 92 91 91 93 96 91 85 88 93 90 89 95 106 116 116 108 103 102 105 111 113 110 103 101 102 100 96
150 151 155 157 154 153 158 161 161 158 154 150 145 145 152 161 171 176 174 174 174 172 173 172 170 167 165 167 165 165 174 174 170 168 163 160 160 157 154 156 158 152 149 144 139 137 131 127 122 117 113 107 104 102 100 98 97 96 94 93 92 94 94 90 88 92 92 89 89 92 98 101 102 104 104 100 101 108 109 104 104 105 102 99 99
151 153 158 156 155 158 162 163 162 159 153 148 145 143 146 155 163 170 171 171 172 172 172 170 168 167 166 166 166 167 166 162 163 168 168 168 165 162 161 161 164 160 155 151 145 139 134 131 127 123 117 112 108 105 103 101 99 97 96 96 95 94 93 93 96 97 97 97 96 105 107 97 97 102 102 102 102 104 105 105 105 105 104 103 102
154 157 161 159 159 162 165 165 163 161 154 146 143 141 141 148 156 162 164 167 170 170 170 167 167 168 167 164 161 156 151 151 155 165 170 172 171 168 167 167 167 162 160 158 149 142 137 135 130 126 121 116 112 109 107 103 101 99 97 97 98 98 93 92 97 99 98 94 89 93 99 97 98 99 98 98 99 100 102 106 107 107 108 107 104
159 161 162 162 162 164 167 166 167 164 156 149 144 140 139 144 154 161 162 163 166 167 167 166 168 169 165 160 156 152 152 154 156 159 157 163 171 174 172 171 167 160 163 161 151 145 141 138 133 129 126 121 117 114 111 107 104 101 99 98 100 103 97 93 99 99 94 91 91 97 102 101 99 99 99 99 99 99 100 101 102 104 104 104 102
166 166 162 163 165 165 166 168 172 169 162 158 151 147 142 145 154 163 167 165 165 166 166 166 170 170 164 160 156 155 158 155 157 160 152 149 161 175 176 174 169 160 165 164 153 148 144 143 139 135 131 126 123 119 115 110 106 102 100 99 100 103 103 106 106 100 98 96 94 98 102 102 102 103 103 101 100 99 97 96 95 96 96 97 98
168 168 166 166 168 170 169 170 173 172 168 164 160 157 151 152 156 162 169 170 170 170 171 171 171 172 165 162 161 160 160 154 157 162 158 153 159 181 184 179 176 167 166 167 162 154 150 149 142 136 134 129 126 123 119 112 108 103 99 100 99 102 108 111 110 109 108 100 96 101 105 105 104 104 103 103 101 100 100 100 99 96 94 96 97
166 170 174 172 172 174 173 172 173 174 171 168 167 165 160 158 160 162 167 172 174 175 177 176 175 174 167 164 164 159 156 153 156 161 162 165 171 187 192 185 182 177 171 169 173 166 156 152 142 136 134 128 128 127 122 115 108 104 101 99 99 104 108 104 105 112 106 101 109 115 107 103 102 101 101 101 101 102 102 102 100 94 93 94 91
168 172 177 177 176 175 176 174 173 178 178 176 174 169 164 159 163 165 166 170 172 173 175 177 176 173 168 166 163 156 155 154 156 161 165 173 176 181 192 194 187 184 181 178 182 178 162 154 145 140 134 127 128 128 124 118 110 106 102 101 105 104 100 95 94 102 103 106 116 110 101 99 99 99 99 99 99 99 98 96 93 90 88 85 81
174 176 178 180 181 179 179 177 176 181 183 183 179 171 165 161 166 166 166 167 168 171 172 174 173 168 167 166 161 157 158 155 155 162 166 169 165 165 186 204 195 185 184 187 188 184 171 160 153 145 135 128 127 127 126 119 114 109 104 106 106 97 92 94 95 100 108 118 120 111 106 103 100 99 99 100 98 94 91 87 87 86 83 80 78
178 180 181 183 187 187 183 181 180 182 184 185 184 175 167 163 165 167 167 166 168 170 170 170 169 166 166 163 160 160 163 160 157 159 159 160 158 162 187 210 203 191 187 192 192 189 184 173 166 154 140 134 130 130 129 125 119 113 111 107 95 86 91 91 88 89 93 112 127 120 114 109 104 102 100 98 95 91 88 87 86 83 80 79 77
179 181 183 186 190 191 188 187 184 184 186 189 187 179 171 166 169 170 168 169 171 171 168 167 168 166 164 164 165 165 165 163 159 158 157 158 161 170 190 205 202 195 191 196 197 196 196 189 180 168 151 138 133 132 132 132 126 120 117 104 89 94 102 92 88 90 91 109 133 130 121 113 105 100 97 94 93 90 87 86 84 82 81 79 77
180 183 184 188 191 192 192 191 190 186 187 191 189 182 176 172 174 174 174 177 177 175 172 169 171 167 165 170 171 168 165 161 156 155 156 157 162 173 183 186 188 192 196 202 201 201 202 199 191 185 168 143 136 139 140 141 132 127 119 106 107 116 105 98 97 96 97 101 119 125 116 107 101 100 93 82 86 91 88 84 81 79 77 75 74
182 184 186 191 191 194 194 194 194 188 188 192 189 187 183 177 178 182 184 184 181 181 177 173 175 172 172 174 171 168 162 158 154 153 153 150 157 170 175 175 178 188 199 205 205 206 207 207 201 195 190 164 152 155 155 158 145 132 116 113 121 116 105 105 106 108 107 100 112 115 104 95 90 96 81 60 67 90 94 86 76 73 69 66 65
184 185 188 191 190 197 199 197 196 189 190 191 187 189 187 181 182 187 189 187 185 185 184 182 182 178 177 175 170 169 161 157 155 151 150 148 153 161 166 173 176 176 188 201 206 210 209 210 209 202 203 186 166 163 164 167 154 141 129 129 124 112 111 113 117 121 115 108 114 108 100 91 84 82 55 43 52 71 94 89 77 69 63 60 60
185 187 190 191 188 195 199 196 195 191 189 190 190 192 190 185 185 187 185 190 191 189 191 192 191 184 177 174 174 171 160 154 148 143 147 150 155 154 162 175 178 176 181 194 199 208 209 205 202 202 206 190 177 176 171 170 157 145 138 135 122 113 116 119 122 123 110 96 102 107 107 100 92 77 32 35 46 57 80 89 81 71 65 63 63
186 190 192 192 188 195 198 193 196 193 190 193 195 196 192 187 190 190 184 191 195 193 198 198 195 190 180 173 174 171 155 146 143 146 150 152 158 161 169 175 176 176 178 187 190 195 193 188 197 209 211 194 187 185 174 172 158 147 144 138 124 117 119 120 119 116 104 75 79 101 111 109 107 88 18 25 44 62 77 85 87 77 73 71 68
187 191 190 190 192 199 198 190 193 194 197 200 196 198 197 192 196 195 187 194 196 196 203 202 195 187 177 169 168 167 152 145 148 153 155 154 160 166 172 175 175 176 179 179 177 178 174 180 202 210 203 190 188 184 175 172 158 149 146 138 129 125 125 122 116 113 112 90 77 93 111 110 111 95 27 23 47 71 78 87 96 89 81 76 71
189 191 188 189 197 203 198 192 197 200 204 205 198 199 202 198 198 195 192 200 200 200 203 202 196 178 169 167 164 162 152 147 150 153 159 158 158 164 168 172 173 174 178 176 174 176 176 178 186 186 183 182 182 178 174 170 158 151 146 137 132 131 128 121 114 111 118 115 97 99 116 116 122 107 47 56 67 73 79 88 94 89 83 81 81
193 194 190 191 201 206 203 201 205 205 206 206 204 205 205 202 202 199 197 200 198 200 202 200 201 187 177 174 164 157 150 148 152 154 160 159 158 160 158 163 167 168 175 180 180 175 171 170 167 172 178 177 176 172 170 167 159 152 145 139 137 136 131 123 119 117 117 119 115 109 101 111 127 63 56 91 85 78 83 89 90 89 88 87 87
196 201 196 194 198 203 206 208 208 209 212 211 209 210 207 204 206 204 200 198 194 198 202 200 203 200 189 174 157 151 148 149 154 155 161 160 156 152 150 157 160 160 166 172 175 165 157 160 164 172 175 173 170 166 165 162 159 155 147 144 145 141 134 130 129 126 121 121 121 115 92 38 34 74 106 110 95 85 86 87 88 89 88 85 81
199 204 202 199 197 198 204 207 207 210 216 215 213 212 209 207 208 206 201 198 196 199 202 199 200 193 179 164 148 145 148 152 156 156 163 163 153 150 152 157 157 154 157 159 161 156 155 162 168 171 171 168 163 161 161 161 162 159 153 153 152 146 142 136 130 126 124 124 124 121 109 79 84 105 116 119 108 99 93 86 82 76 74 70 62
202 206 207 205 201 200 202 202 205 209 212 212 212 212 208 209 207 202 201 201 199 202 202 200 198 187 171 161 149 152 161 163 165 162 166 162 154 157 157 159 165 161 158 157 155 154 157 162 167 168 166 162 160 160 160 162 163 159 160 164 161 157 147 136 130 126 126 127 128 130 123 112 109 108 113 119 117 115 109 98 90 79 72 64 54
201 206 208 209 205 203 202 201 205 208 209 209 209 207 204 206 205 200 202 205 203 199 199 203 198 186 172 162 156 164 174 175 176 172 170 166 157 160 167 173 177 170 162 160 162 161 158 157 158 161 159 158 161 163 164 166 165 165 173 173 172 171 157 145 140 135 135 137 135 138 141 138 135 127 119 118 115 120 121 116 110 100 89 72 58
203 208 209 215 213 208 206 205 210 211 209 213 212 206 204 206 206 205 206 211 208 198 198 203 198 188 174 161 161 169 176 179 185 182 176 173 166 170 188 193 185 176 172 173 176 169 162 159 160 163 159 157 162 166 168 170 173 180 183 180 179 177 169 159 146 140 143 142 138 142 147 148 151 152 143 133 132 133 128 122 109 93 85 69 52
207 209 209 219 220 214 211 208 212 212 208 212 214 210 209 210 209 207 210 213 209 204 207 204 196 189 176 164 165 172 178 183 187 190 185 179 178 186 198 201 192 182 180 183 180 172 172 173 170 170 165 162 165 167 173 181 189 194 190 184 181 176 172 159 147 150 150 144 141 136 134 136 144 147 142 132 137 143 136 125 107 88 76 59 42
212 214 212 215 217 219 218 214 213 212 208 210 215 217 213 210 207 206 212 213 209 212 214 204 195 188 176 169 171 175 178 182 187 193 193 189 188 192 198 198 191 186 185 187 181 174 181 184 181 177 170 169 171 171 181 190 196 196 193 188 179 173 167 154 148 154 146 139 140 131 130 133 131 130 128 114 110 127 130 121 110 89 59 33 25
217 220 216 211 209 213 215 216 216 213 209 209 213 218 212 205 203 204 211 214 214 215 205 196 193 186 175 171 174 176 175 178 189 196 194 192 190 191 199 196 189 188 188 191 186 179 183 187 190 187 176 172 175 180 186 190 192 192 191 184 172 164 158 149 149 149 139 139 141 135 137 132 121 120 127 119 105 114 127 122 115 75 31 24 30
215 215 217 213 204 203 207 215 217 209 211 211 206 209 206 203 204 204 209 216 215 205 190 189 190 184 179 173 172 174 175 181 195 201 192 189 192 196 199 192 188 190 186 189 193 191 194 192 193 197 189 178 179 185 187 184 183 182 176 170 163 157 151 147 147 143 138 142 142 133 132 129 126 130 132 126 121 128 129 113 103 47 25 39 45
211 206 210 211 202 203 208 216 214 204 209 214 202 199 201 203 203 203 206 208 200 188 182 192 187 179 178 177 175 174 178 187 199 205 194 189 195 199 198 192 190 189 183 188 195 197 201 197 196 202 200 190 179 175 180 176 167 160 155 154 158 157 150 143 142 145 146 143 138 131 134 134 131 136 134 133 146 153 142 113 112 81 49 53 51
203 198 201 203 201 200 199 206 210 203 205 216 207 194 195 201 202 205 205 192 183 179 182 189 181 174 175 184 193 188 189 197 201 203 197 193 200 201 200 198 194 191 186 188 191 195 199 198 200 202 200 196 179 165 172 172 162 157 151 140 141 148 146 142 141 148 150 144 141 143 152 147 135 134 125 112 121 145 151 149 151 127 93 81 64
197 197 197 197 198 194 189 196 207 205 200 207 208 197 192 194 198 204 198 181 176 177 185 187 180 181 184 190 203 200 198 201 199 198 198 200 204 204 204 203 199 198 195 191 192 196 198 198 199 197 192 190 182 172 173 171 163 158 148 135 133 135 135 137 138 139 142 142 144 149 154 143 130 129 119 106 110 128 139 138 138 124 108 99 84
197 199 198 192 192 187 187 195 199 202 197 196 199 196 192 190 194 199 185 173 177 175 181 188 183 191 199 203 211 209 204 204 205 207 209 212 212 211 209 204 201 202 202 199 199 199 198 197 194 190 184 180 180 179 179 177 168 156 147 142 141 135 129 133 134 137 142 138 139 141 138 133 129 130 125 124 140 145 134 124 122 119 113 104 94
195 199 198 192 191 185 186 192 191 195 201 200 192 188 192 192 194 195 180 168 178 176 177 186 186 194 206 209 211 211 207 208 212 213 214 219 219 216 211 203 203 205 202 200 202 200 198 195 190 187 185 180 177 180 182 182 176 165 155 150 146 140 139 145 137 132 139 136 135 138 134 132 134 137 129 131 152 150 132 121 120 121 116 109 103
195 197 198 196 193 187 186 188 191 199 206 204 190 183 189 192 191 190 180 175 183 185 187 193 192 192 202 206 207 209 212 213 214 208 207 216 218 214 208 203 204 206 200 196 198 200 197 192 190 190 189 183 178 180 183 181 180 175 162 155 155 153 153 152 137 124 133 135 134 139 139 138 140 137 125 122 138 140 128 120 118 117 113 111 110
197 195 198 197 191 191 192 190 199 207 206 202 189 181 184 187 184 183 181 180 185 189 192 197 194 190 199 204 206 209 213 216 214 209 210 214 212 207 200 195 201 204 199 193 193 196 193 191 194 193 191 189 184 185 186 182 180 176 169 168 170 169 166 159 147 136 134 133 134 137 138 134 130 124 118 125 139 138 129 122 121 118 111 111 111
196 194 198 193 188 197 196 196 204 203 201 202 188 179 181 180 177 177 180 182 185 187 191 197 197 200 206 206 208 211 212 215 213 213 220 215 209 204 195 190 196 201 199 195 193 192 190 192 196 194 195 198 194 191 191 188 186 183 179 178 171 171 173 166 158 151 144 140 142 142 138 130 127 126 121 128 141 141 132 124 121 120 114 110 109
192 192 196 191 190 201 198 197 201 195 197 201 184 177 180 178 176 176 179 182 186 190 193 199 200 203 206 202 203 209 206 205 203 205 212 209 206 205 200 196 195 197 200 201 197 191 188 193 196 192 193 200 197 194 194 194 194 187 180 179 170 172 176 172 169 161 151 148 144 141 142 135 135 144 140 138 144 142 135 126 117 117 116 111 109
189 191 195 190 188 197 197 193 192 190 197 199 181 176 179 180 179 177 179 183 185 190 192 193 191 188 189 188 189 195 193 187 187 190 194 199 204 203 201 197 196 198 201 201 199 193 188 193 198 193 191 195 194 195 198 197 197 190 183 180 173 172 176 176 178 166 153 151 147 144 145 139 135 147 151 149 148 145 139 132 119 114 117 114 114
188 190 194 188 187 196 196 188 184 186 194 194 181 176 178 181 181 180 183 184 181 185 186 181 179 176 178 180 179 182 183 179 180 180 180 188 198 200 199 196 197 202 201 198 198 196 194 195 198 198 197 195 191 195 202 201 201 200 192 180 168 174 178 179 179 170 159 154 152 151 150 146 141 147 155 152 148 148 144 135 124 120 121 118 120
188 189 190 184 188 200 194 180 179 182 183 182 177 176 179 181 182 182 185 185 183 183 178 174 176 176 179 176 171 174 177 179 182 182 183 183 186 193 196 196 200 201 195 193 195 197 200 200 197 200 203 198 192 195 201 204 207 212 207 190 177 182 184 182 178 171 164 155 151 153 152 151 145 146 160 155 144 145 144 139 134 132 130 126 127